Погода в Вецумниеки

Латвия     56°36′05″N   24°31′27″E
темп.,
°C
ветер,
м/с
пор.,
м/с
влажн.,
%
обл.,
%
осадки,
мм/ч
давл.,
гПа
погр.,
м
7 марта, вс
вс723:00+2зюз71578100 0.0 10071077
02:00+2з81577100 0.0 10031104
05:00−2ссз1792100 2.6 1001369
08:000з71572100 3.1 10001885
11:00+1сз8164578 0.1 10022766
14:00+2зсз7134789 0.3 10022390
17:00−1сз61257100 0.1 10021726
20:00−3зсз6138294 0.3 10031427
8 марта, пн
пн823:00−3сз61287100 0.9 10041203
02:00−3ссз4978100 1.4 1006937
05:00−5ссз4107763 0.0 1008830
08:00−5ссз488265 0.1 10111053
11:00−3ссз4764100 0.1 10141043
14:00−3ссз466399 0.1 1015969
17:00−4ссз4767100 0.0 1017810
20:00−6ссз297980 0.0 1019412
9 марта, вт
вт923:00−6сз12830 0.0 102038
02:00−7с11821 0.0 102121
05:00−8з118228 0.0 102121
08:00−6юз127959 0.0 102189
11:00−3юз345994 0.0 1021504
14:000юз455472 0.0 1021987
17:00−1юз385972 0.0 1019662
20:00−2зюз3107286 0.0 1019446
10 марта, ср
ср1023:00−3зюз3977100 0.0 1018410
02:00−3юз41078100 0.0 1018456
05:00−3юз3981100 0.0 1018392
08:00−2зюз4895100 0.6 1018438
11:000з347999 0.2 1019624
14:00+1з457097 0.4 1019891
17:00−2сз358393 0.1 1019451
20:00−4ссз369180 0.3 1020315
11 марта, чт
чт1123:00−4всв248994 0.1 1020245
02:00−6всв119486 0.1 102144
05:00−6юв239694 0.0 1019105
08:00−5ююв359191 0.1 1018248
11:00−2ююв586787 0.0 1014615
14:00+2ю6115594 0.0 10111110
17:00+1ю61453100 0.0 10071120
20:00−1ю81773100 0.1 10031035